Temp
7 7 7 7 7 7 7 7 7 6 6 7 6 6 6 7 7 7 7 6 6 6 6 6 6 6 6 6 6 5 5 5
6 6 7 7 6 6 6 6 6 6 6 6 6 6 6 6 7 7 6 6 6 6 6 6 6 6 6 6 5 5 5 5
5 5 5 5 5 5 5 5 5 5 5 6 6 6 6 6 6 6 6 6 7 7 6 6 6 6 6 6 5 5 5 5
4 4 4 4 4 4 4 4 4 4 5 5 5 6 6 6 6 6 5 6 6 6 6 6 6 6 6 6 6 5 5 5
4 4 4 4 4 3 3 3 3 3 4 4 4 4 5 5 5 5 5 5 6 5 6 6 6 6 6 6 6 5 5 5
3 3 3 3 3 3 3 3 3 3 3 3 3 3 3 4 5 5 4 5 5 5 5 6 6 6 5 5 5 5 5 5
3 3 3 3 3 3 3 4 4 4 4 3 3 3 3 3 4 4 4 4 4 5 5 5 5 5 6 5 5 5 5 5
3 3 3 3 3 3 3 4 4 4 4 4 4 4 3 3 3 3 4 4 4 4 4 5 5 4 5 6 5 5 5 5
3 3 3 3 3 3 3 4 4 4 4 4 4 4 4 4 4 3 3 4 4 4 4 4 4 4 5 5 5 5 5 5
2 2 2 2 3 3 3 4 4 4 4 4 4 4 4 4 4 4 4 4 4 5 4 4 4 4 4 6 5 5 5 5
2 2 2 2 2 3 3 3 3 4 4 4 5 5 5 5 4 4 4 4 4 4 4 4 4 4 4 5 5 5 5 5
1 1 1 2 2 2 2 3 3 3 3 4 4 4 5 5 5 5 5 5 5 5 5 5 4 4 4 5 5 5 5 5
0 1 1 1 1 2 2 2 3 3 3 4 4 4 4 5 5 5 5 5 5 5 4 5 5 5 4 4 4 4 5 5
0 0 0 0 1 1 2 2 1 1 2 2 2 2 3 3 3 4 4 4 4 5 5 5 5 4 5 4 5 2 3 5
-1 -1 -0 -0 0 0 0 -0 -0 1 1 2 2 2 2 3 3 4 4 4 4 4 4 4 5 4 4 4 3 3 3 4
-2 -1 -1 -1 -1 -1 -1 -1 -0 1 2 2 2 2 2 3 4 4 4 5 5 5 4 3 3 3 3 3 4 4 2 4
-2 -2 -2 -2 -2 -2 -2 -1 0 1 2 2 2 2 2 2 2 2 3 4 4 5 4 3 2 2 1 2 3 3 2 1
-3 -2 -2 -2 -2 -2 -2 -1 -1 0 1 0 0 -1 -1 -0 1 1 1 2 3 3 2 2 2 2 1 1 2 3 4 2
-3 -3 -3 -3 -3 -2 -2 -2 -2 -1 -1 -1 -1 -2 -2 -1 -0 0 1 1 1 1 1 1 1 1 1 1 1 3 3 2
-3 -3 -3 -3 -3 -3 -3 -3 -3 -3 -3 -2 -2 -3 -2 -2 -1 -1 -2 -2 -1 -0 -0 0 -0 -1 -0 0 1 1 3 1
Height
3154 3153 3151 3150 3149 3148 3147 3145 3144 3144 3143 3142 3142 3143 3142 3142 3142 3143 3144 3145 3144 3145 3145 3145 3144 3144 3144 3144 3145 3145 3145 3145
3150 3149 3147 3145 3143 3141 3140 3139 3139 3138 3138 3137 3137 3137 3137 3137 3137 3137 3138 3139 3140 3140 3141 3141 3141 3141 3140 3140 3141 3141 3142 3142
3145 3143 3141 3140 3138 3136 3134 3133 3132 3132 3131 3131 3131 3131 3132 3132 3132 3132 3131 3132 3132 3135 3136 3136 3136 3136 3136 3136 3136 3137 3138 3138
3142 3140 3138 3136 3133 3131 3130 3128 3126 3125 3124 3124 3124 3124 3124 3125 3125 3125 3126 3127 3126 3126 3129 3131 3131 3131 3131 3131 3132 3133 3134 3134
3138 3136 3134 3132 3129 3127 3125 3123 3121 3119 3118 3117 3116 3116 3117 3117 3117 3118 3119 3119 3120 3121 3121 3123 3125 3126 3126 3126 3127 3128 3129 3130
3133 3131 3129 3127 3125 3123 3121 3118 3117 3114 3113 3111 3110 3109 3109 3109 3109 3109 3110 3112 3113 3114 3115 3116 3118 3120 3120 3121 3122 3123 3124 3125
3127 3124 3122 3120 3118 3117 3115 3113 3110 3108 3106 3104 3103 3102 3101 3100 3101 3101 3101 3103 3105 3106 3106 3109 3111 3113 3115 3115 3117 3117 3118 3119
3121 3118 3116 3113 3111 3108 3106 3104 3102 3100 3098 3096 3095 3094 3093 3092 3092 3092 3093 3094 3095 3096 3098 3100 3103 3106 3107 3109 3110 3111 3112 3113
3114 3111 3108 3105 3103 3100 3098 3095 3092 3089 3087 3085 3084 3083 3082 3082 3082 3083 3084 3084 3085 3086 3087 3090 3093 3096 3098 3100 3101 3104 3105 3107
3106 3102 3099 3097 3094 3091 3088 3085 3082 3079 3077 3075 3073 3071 3070 3069 3069 3070 3073 3074 3075 3076 3077 3078 3082 3086 3089 3092 3094 3096 3098 3100
3098 3095 3092 3088 3085 3081 3077 3073 3070 3067 3064 3061 3059 3058 3056 3055 3055 3056 3058 3061 3063 3065 3066 3068 3071 3075 3079 3083 3084 3087 3089 3092
3092 3089 3085 3081 3077 3072 3067 3062 3058 3053 3049 3046 3045 3043 3042 3041 3040 3041 3043 3045 3047 3052 3054 3057 3059 3065 3070 3072 3073 3076 3079 3083
3086 3082 3078 3074 3070 3065 3060 3054 3048 3042 3036 3031 3028 3028 3028 3027 3025 3026 3028 3028 3031 3036 3041 3044 3047 3054 3059 3059 3060 3063 3065 3072
3080 3076 3071 3067 3061 3055 3048 3041 3035 3029 3024 3021 3017 3015 3014 3013 3012 3011 3013 3013 3015 3018 3024 3029 3035 3041 3043 3049 3047 3042 3054 3059
3074 3070 3065 3059 3053 3047 3039 3031 3023 3017 3014 3009 3005 3002 3001 3000 2999 2998 2999 3000 3001 3004 3007 3014 3019 3027 3031 3035 3042 3037 3047 3050
3068 3064 3059 3052 3045 3040 3032 3023 3014 3008 2999 2996 2992 2990 2987 2986 2984 2983 2983 2984 2987 2989 2992 2998 3005 3011 3018 3021 3025 3028 3034 3042
3064 3060 3054 3047 3041 3035 3026 3018 3009 2999 2992 2983 2977 2973 2970 2969 2968 2968 2967 2966 2969 2973 2977 2982 2990 2999 3004 3010 3015 3020 3025 3019
3060 3055 3050 3043 3039 3032 3022 3013 3001 2990 2980 2973 2968 2964 2961 2959 2955 2952 2953 2953 2954 2956 2962 2968 2976 2985 2993 3000 3004 3012 3015 3023
3056 3051 3046 3042 3035 3027 3018 3007 2993 2980 2971 2965 2961 2958 2954 2951 2946 2943 2940 2940 2941 2944 2949 2957 2964 2972 2981 2988 2995 3002 3007 3009
3051 3047 3043 3038 3032 3024 3014 3003 2989 2976 2966 2958 2954 2950 2946 2942 2938 2934 2932 2931 2930 2933 2938 2947 2954 2962 2971 2977 2985 2990 2995 2999
Wind_Speed
22 25 28 31 32 32 30 28 25 22 20 20 22 25 27 26 24 23 21 19 19 17 16 17 16 15 16 16 15 15 14 16
26 28 30 30 30 29 27 26 25 24 25 24 23 23 27 29 30 28 26 22 21 21 19 18 18 18 18 18 18 17 16 17
25 26 27 27 26 25 24 24 24 24 26 27 27 26 27 30 32 31 30 28 24 24 23 21 21 21 21 20 20 20 19 18
22 23 24 24 24 23 21 21 22 23 25 28 29 29 30 31 33 34 33 32 32 29 26 25 24 24 24 23 22 22 21 20
20 21 20 21 22 22 21 21 21 20 21 24 29 30 32 32 34 35 35 35 34 34 29 30 29 26 27 25 24 23 24 23
24 23 24 23 23 24 26 27 28 28 27 25 25 27 31 35 36 38 40 33 37 38 35 34 31 29 28 28 26 26 26 26
29 29 29 29 28 28 29 31 33 36 37 37 34 32 32 31 37 39 40 40 41 39 39 37 35 32 31 30 29 29 29 28
33 34 35 33 31 32 33 35 36 37 40 44 44 43 42 40 38 38 43 45 42 41 42 41 39 36 34 34 32 32 31 31
37 39 38 35 35 35 36 39 41 40 41 41 42 47 51 49 47 44 42 42 49 50 44 46 43 40 38 36 34 35 34 34
39 38 35 35 36 38 41 42 42 42 43 44 44 44 47 50 54 53 47 46 45 49 53 48 49 44 42 39 37 37 37 36
33 33 35 38 39 41 43 45 46 47 48 48 49 49 49 49 51 52 56 52 51 50 51 53 52 49 47 42 40 40 41 39
31 33 35 38 40 43 45 48 49 51 52 52 52 52 51 52 52 51 54 60 57 53 53 51 57 50 50 49 45 43 43 41
31 34 36 39 40 41 43 46 48 48 49 51 52 49 47 49 53 53 52 57 63 58 55 57 54 58 54 55 54 49 48 44
32 35 36 36 37 41 46 48 46 44 42 42 43 43 41 40 44 47 47 48 56 58 57 58 59 52 58 59 49 57 50 46
30 30 31 33 37 42 44 45 45 44 41 40 37 39 41 43 44 44 49 47 50 53 54 56 60 55 53 61 54 60 43 43
26 28 30 32 37 41 43 47 46 41 40 38 34 34 38 41 44 49 48 51 50 52 55 54 58 62 53 52 60 57 44 53
26 27 29 30 35 39 42 44 42 38 35 31 31 32 34 37 39 43 44 48 52 55 58 56 53 62 53 57 59 52 70 28
25 26 25 27 31 35 41 43 38 35 30 28 26 24 26 31 35 36 38 40 44 50 54 54 51 57 55 52 52 61 69 54
24 23 23 24 28 33 40 44 41 37 32 25 23 21 23 28 31 33 34 36 36 39 45 48 46 52 63 54 57 50 52 70
23 20 21 23 26 30 37 45 42 40 32 29 26 24 23 24 26 30 31 30 30 32 38 39 39 40 46 42 45 43 46 44
Wind_Direction
277 281 284 287 289 291 290 292 289 282 276 274 274 272 267 262 259 262 269 269 271 270 269 268 264 256 253 254 253 251 248 249
283 285 288 290 292 293 291 289 285 280 275 270 268 267 265 263 262 259 255 263 266 269 266 265 265 257 252 248 250 247 247 250
289 292 295 296 295 294 292 289 282 275 271 268 266 264 261 261 259 259 257 254 255 267 265 263 261 260 253 249 246 247 245 247
289 290 294 296 298 300 295 289 284 278 271 268 264 260 257 256 256 255 256 256 255 248 257 260 257 257 255 249 248 246 247 246
290 295 298 296 291 290 293 290 290 287 282 271 267 264 256 253 253 254 255 252 253 252 248 258 254 255 256 250 246 246 247 247
304 303 301 297 292 286 281 277 274 275 274 270 272 272 264 258 255 250 249 255 251 250 250 249 251 252 254 252 244 243 245 247
306 305 305 299 293 288 285 281 276 273 270 269 266 262 263 263 257 254 247 250 252 252 249 249 248 248 250 251 246 242 243 245
303 302 301 298 291 290 289 287 285 280 275 270 268 267 262 260 258 256 252 247 253 252 251 247 246 245 246 247 247 242 239 242
298 299 299 294 289 288 287 290 288 285 279 275 272 269 265 264 260 257 256 253 248 252 248 247 244 242 241 243 243 244 239 240
298 298 296 294 292 290 289 291 287 283 281 275 273 275 271 266 262 259 256 255 255 250 250 251 245 242 240 241 242 244 242 239
297 297 298 299 299 298 296 294 291 288 285 282 276 276 274 268 264 262 254 255 252 253 253 251 250 241 241 238 238 242 244 240
302 302 303 302 301 301 300 299 296 293 289 286 282 279 273 271 268 264 258 255 254 250 249 252 249 247 241 238 237 236 242 242
304 304 305 306 305 305 305 303 298 292 287 284 280 277 274 270 268 264 264 257 253 252 246 245 247 247 243 237 237 233 234 238
305 306 307 309 314 316 314 310 304 299 295 288 280 275 268 267 267 265 265 264 255 249 246 242 242 244 244 244 250 223 229 231
308 310 314 320 324 322 319 316 312 303 295 290 282 273 269 271 272 270 263 263 258 252 249 242 237 238 240 240 236 237 225 228
314 318 323 327 329 324 323 321 317 307 304 295 282 276 270 269 270 270 266 259 255 251 248 245 237 233 234 238 240 240 232 238
318 323 327 332 330 328 330 328 319 314 313 312 303 293 283 277 276 271 265 258 253 247 242 241 236 234 235 233 234 239 235 247
322 326 331 334 332 337 340 336 331 331 327 317 308 295 281 273 272 271 268 263 258 253 241 237 236 233 233 231 236 240 238 235
323 329 333 335 341 346 350 347 344 343 335 320 315 307 286 275 273 269 266 263 258 254 240 237 237 232 231 233 233 244 246 244
327 328 334 342 345 350 356 358 354 353 341 332 314 313 306 298 289 282 278 271 252 244 236 234 233 229 222 230 233 242 250 239